FW1358 Weather Reports


time (UTC)temp
C
wind
direction
speed
KPH
gust
KPH
rain 1hr
cm
rain 24hr
cm
rain mn
cm
humidity
%
barometer
mb
20260507170303 18 289 0.0 1.6 0.00 0.20 0.03 53 1015.7
20260507165803 18 290 0.0 0.0 0.00 0.20 0.03 55 1016.1
20260507165306 18 290 0.0 0.0 0.00 0.20 0.03 56 1016.0
20260507164803 18 290 0.0 1.6 0.00 0.20 0.03 56 1016.0
20260507162802 18 234 0.0 0.0 0.00 0.20 0.03 54 1015.9
20260507155306 17 234 0.0 0.0 0.00 0.20 0.03 60 1016.4
20260507152306 16 234 0.0 3.2 0.00 0.20 0.03 64 1016.3
20260507150802 15 234 0.0 0.0 0.00 0.20 0.03 71 1016.2
20260507145803 15 234 0.0 3.2 0.00 0.20 0.03 71 1016.2
20260507145306 15 234 0.0 3.2 0.00 0.20 0.03 72 1016.1
20260507144802 14 286 0.0 1.6 0.00 0.20 0.03 73 1016.1
20260507144303 14 244 0.0 0.0 0.00 0.20 0.03 76 1016.2
20260507143803 14 244 0.0 1.6 0.00 0.20 0.03 75 1016.1
20260507143302 14 244 0.0 1.6 0.00 0.20 0.03 74 1016.2
20260507142803 13 203 0.0 1.6 0.00 0.20 0.03 77 1016.2
20260507141802 13 293 0.0 1.6 0.00 0.20 0.03 80 1016.0
20260507141302 13 314 0.0 1.6 0.00 0.20 0.03 78 1016.0
20260507140803 13 314 0.0 3.2 0.00 0.20 0.03 81 1016.0
20260507135803 13 348 0.0 3.2 0.00 0.20 0.03 83 1015.9
20260507135306 12 242 0.0 3.2 0.00 0.20 0.03 87 1015.9
20260507134303 12 256 0.0 1.6 0.00 0.20 0.03 87 1015.8
20260507132306 11 234 0.0 3.2 0.00 0.23 0.03 89 1015.6
20260507131803 11 271 0.0 3.2 0.00 0.25 0.03 90 1015.7
20260507130803 11 344 0.0 0.0 0.00 0.36 0.03 90 1015.7
20260507130302 11 344 0.0 0.0 0.00 0.41 0.03 90 1015.8
20260507125306 11 344 0.0 0.0 0.00 0.46 0.03 92 1015.7
20260507124802 11 344 0.0 0.0 0.00 0.48 0.03 92 1015.6
20260507124302 11 344 0.0 0.0 0.00 0.48 0.03 92 1015.6
20260507123802 11 344 0.0 0.0 0.00 0.48 0.03 92 1015.6
20260507121803 11 344 0.0 0.0 0.00 0.48 0.03 93 1015.5
20260507115803 11 344 0.0 0.0 0.00 0.48 0.03 94 1015.4
20260507115306 11 344 0.0 0.0 0.00 0.48 0.03 93 1015.3
20260507114803 11 344 0.0 0.0 0.00 0.48 0.03 93 1015.3
20260507114303 11 344 0.0 0.0 0.00 0.48 0.03 93 1015.2
20260507113303 11 344 0.0 0.0 0.00 0.48 0.03 93 1014.9
20260507112306 11 344 0.0 0.0 0.00 0.51 0.03 93 1015.0
20260507110302 11 344 0.0 0.0 0.00 0.61 0.03 93 1014.7
20260507105802 11 344 0.0 0.0 0.00 0.69 0.03 93 1014.5
20260507105306 11 344 0.0 0.0 0.00 0.74 0.03 93 1014.3
20260507104303 11 344 0.0 0.0 0.00 0.84 0.03 93 1014.4
20260507102803 11 344 0.0 0.0 0.00 0.99 0.03 93 1014.3
20260507102306 11 344 0.0 0.0 0.00 1.02 0.03 93 1014.3
20260507101303 11 344 0.0 0.0 0.03 1.17 0.03 93 1014.2
20260507092306 11 344 0.0 0.0 0.03 1.91 0.03 93 1014.1
20260507091802 11 344 0.0 0.0 0.00 1.91 0.00 93 1014.2
20260507085802 11 344 0.0 0.0 0.00 1.98 0.00 93 1014.0
20260507085306 11 344 0.0 0.0 0.00 2.01 0.00 93 1014.2
20260507084802 11 344 0.0 0.0 0.00 2.03 0.00 93 1014.2
20260507083303 11 344 0.0 0.0 0.00 2.11 0.00 93 1013.8
20260507082306 11 344 0.0 0.0 0.00 2.11 0.00 93 1013.9
20260507080303 12 344 0.0 0.0 0.00 2.11 0.00 94 1014.2
20260507075306 12 344 0.0 0.0 0.00 2.11 0.00 94 1014.1
20260507073803 12 344 0.0 0.0 0.00 2.11 0.00 94 1014.0
20260507072803 12 344 0.0 0.0 0.00 2.11 0.00 93 1014.0
20260507072306 12 344 0.0 0.0 0.00 2.11 0.00 93 1014.0
20260507071802 12 344 0.0 0.0 0.00 2.11 0.00 93 1014.1
20260507070803 12 344 0.0 0.0 0.00 2.11 0.00 93 1014.2
20260507064803 12 344 0.0 0.0 0.00 2.11 0.00 93 1014.4
20260507063803 12 344 0.0 0.0 0.00 2.11 0.00 94 1014.7
20260507063303 12 344 0.0 0.0 0.00 2.11 0.00 93 1014.8
20260507062803 12 344 0.0 0.0 0.00 2.11 0.00 93 1014.7
20260507061802 12 344 0.0 0.0 0.00 2.11 0.00 93 1014.6
20260507061302 12 344 0.0 0.0 0.00 2.11 0.00 93 1014.3
20260507060802 12 344 0.0 0.0 0.00 2.11 0.00 93 1014.2
20260507055802 12 344 0.0 0.0 0.00 2.11 0.00 93 1014.4
20260507054303 12 344 0.0 0.0 0.00 2.11 0.00 93 1014.3
20260507053303 12 344 0.0 0.0 0.00 2.11 0.00 93 1014.5
20260507052306 12 344 0.0 0.0 0.00 2.11 0.00 93 1014.5
20260507051302 12 344 0.0 0.0 0.00 2.11 0.00 93 1014.9
20260507050813 12 344 0.0 0.0 0.00 2.11 0.00 93 1015.0
20260507050303 12 344 0.0 0.0 0.00 2.11 0.00 93 1014.9
20260507045306 12 344 0.0 0.0 0.00 2.11 2.11 93 1015.2
20260507044304 12 344 0.0 0.0 0.00 2.11 2.11 93 1015.6
20260507043303 12 344 0.0 0.0 0.00 2.11 2.11 93 1015.3
20260507042802 12 344 0.0 0.0 0.00 2.11 2.11 93 1015.3
20260507042306 12 344 0.0 0.0 0.00 2.11 2.11 93 1015.4
20260507041802 12 344 0.0 0.0 0.00 2.11 2.11 93 1015.3
20260507040803 12 344 0.0 0.0 0.00 2.11 2.11 93 1014.9
20260507040302 12 344 0.0 0.0 0.00 2.11 2.11 93 1015.1
20260507035803 12 344 0.0 0.0 0.00 2.11 2.11 93 1015.3
20260507035305 12 344 0.0 0.0 0.00 2.11 2.11 93 1015.5
20260507034803 12 344 0.0 0.0 0.00 2.11 2.11 93 1015.1
20260507034302 12 344 0.0 0.0 0.00 2.11 2.11 93 1015.0
20260507033302 12 344 0.0 0.0 0.00 2.11 2.11 93 1015.0
20260507032803 12 344 0.0 0.0 0.00 2.11 2.11 93 1014.8
20260507032305 12 344 0.0 0.0 0.00 2.11 2.11 93 1015.1
20260507031303 12 344 0.0 1.6 0.00 2.11 2.11 93 1015.0
20260507030803 13 344 0.0 1.6 0.00 2.11 2.11 93 1015.2
20260507025803 13 200 0.0 0.0 0.00 2.11 2.11 94 1014.9
20260507025306 13 200 0.0 0.0 0.00 2.11 2.11 94 1014.7
20260507024803 13 200 0.0 0.0 0.00 2.11 2.11 94 1014.4
20260507024303 13 200 0.0 0.0 0.00 2.11 2.11 94 1014.4
20260507023803 13 200 0.0 0.0 0.03 2.11 2.11 94 1014.1
20260507022803 13 200 0.0 0.0 0.03 2.11 2.11 94 1014.2
20260507021303 13 200 0.0 0.0 0.05 2.11 2.11 94 1014.6
20260507020803 13 200 0.0 0.0 0.05 2.11 2.11 94 1014.4
20260507015802 13 200 0.0 0.0 0.05 2.11 2.11 94 1014.9
20260507014302 13 200 0.0 0.0 0.05 2.11 2.11 94 1015.2
20260507013302 13 200 0.0 0.0 0.03 2.08 2.08 94 1015.1
20260507011803 13 200 0.0 0.0 0.00 2.06 2.06 94 1014.7
20260507011303 13 200 0.0 0.0 0.00 2.06 2.06 93 1014.6
20260507010303 13 200 0.0 0.0 0.00 2.06 2.06 93 1014.4
20260507005803 13 200 0.0 0.0 0.00 2.06 2.06 93 1014.1
20260507003803 13 200 0.0 0.0 0.00 2.06 2.06 92 1013.7
20260507002306 13 200 0.0 0.0 0.00 2.06 2.06 93 1013.6
20260506235803 13 200 0.0 0.0 0.00 2.06 2.06 93 1013.3
20260506234803 13 200 0.0 0.0 0.00 2.06 2.06 93 1013.8
20260506232802 13 200 0.0 0.0 0.00 2.06 2.06 93 1014.3
20260506231803 13 200 0.0 0.0 0.00 2.06 2.06 93 1014.6
20260506230802 13 200 0.0 0.0 0.03 2.06 2.06 93 1014.4
20260506230303 13 200 0.0 0.0 0.05 2.06 2.06 93 1013.9
20260506225803 13 200 0.0 0.0 0.05 2.06 2.06 93 1014.2
20260506223803 13 200 0.0 0.0 0.05 2.06 2.06 93 1014.3
20260506223303 13 200 0.0 0.0 0.05 2.06 2.06 93 1014.6
20260506222306 13 200 0.0 0.0 0.05 2.06 2.06 93 1014.6
20260506221303 13 200 0.0 0.0 0.03 2.03 2.03 92 1014.7
20260506220803 13 200 0.0 0.0 0.03 2.03 2.03 92 1014.9
20260506215803 13 200 0.0 0.0 0.00 2.01 2.01 92 1014.9
20260506215306 13 200 0.0 0.0 0.00 2.01 2.01 92 1014.9
20260506214803 13 200 0.0 0.0 0.00 2.01 2.01 92 1014.8
20260506214303 13 200 0.0 0.0 0.00 2.01 2.01 92 1014.6
20260506212306 13 200 0.0 0.0 0.00 2.01 2.01 91 1014.0
20260506211303 13 200 0.0 0.0 0.00 2.01 2.01 92 1013.5
20260506210803 13 200 0.0 0.0 0.00 2.01 2.01 92 1013.5
20260506205802 13 200 0.0 0.0 0.00 2.01 2.01 92 1013.5
20260506204803 13 200 0.0 0.0 0.00 2.01 2.01 92 1013.7
20260506204302 13 200 0.0 0.0 0.00 2.01 2.01 92 1013.8
20260506203803 13 200 0.0 0.0 0.00 2.01 2.01 91 1013.8
20260506201803 13 200 0.0 0.0 0.00 2.01 2.01 91 1013.9
20260506201303 14 200 0.0 0.0 0.00 2.01 2.01 91 1013.5
20260506195306 14 200 0.0 0.0 0.03 2.01 2.01 92 1013.4
20260506194803 14 200 0.0 0.0 0.03 2.01 2.01 92 1013.4
20260506194303 14 200 0.0 0.0 0.05 2.01 2.01 92 1013.4
20260506193803 13 200 0.0 0.0 0.08 2.01 2.01 92 1013.3
20260506193302 13 200 0.0 0.0 0.08 2.01 2.01 92 1013.7
20260506192803 13 200 0.0 0.0 0.08 2.01 2.01 93 1013.6
20260506192305 13 200 0.0 0.0 0.08 2.01 2.01 93 1013.7
20260506191303 13 200 0.0 0.0 0.08 2.01 2.01 93 1013.8
20260506190303 13 200 0.0 0.0 0.08 2.01 2.01 92 1013.6
20260506185803 13 200 0.0 0.0 0.08 2.01 2.01 92 1014.2
20260506184303 13 200 0.0 0.0 0.03 1.96 1.96 92 1014.5
20260506183803 13 200 0.0 0.0 0.00 1.93 1.93 92 1014.3
20260506182306 13 200 0.0 0.0 0.00 1.93 1.93 92 1014.1
20260506181303 13 200 0.0 0.0 0.00 1.93 1.93 92 1013.7
20260506180303 13 200 0.0 0.0 0.00 1.93 1.93 92 1013.8
20260506175306 13 200 0.0 0.0 0.00 1.93 1.93 92 1013.3
20260506174803 13 200 0.0 0.0 0.00 1.93 1.93 92 1013.3
20260506174302 13 200 0.0 0.0 0.00 1.93 1.93 92 1013.6
20260506173303 13 200 0.0 0.0 0.00 1.93 1.93 92 1013.6
20260506172803 13 200 0.0 0.0 0.00 1.93 1.93 92 1013.8
20260506171803 13 200 0.0 0.0 0.00 1.93 1.93 92 1013.8
20260506170802 13 200 0.0 0.0 0.00 1.93 1.93 92 1012.8